CAPE
906 950 878 920 985 1237 1195 1347 1506 1432 1435 1884 1918 1933 1825 1696 1592 1468 1547 1604 1576 1563 1596 1560 1544 1368 1365 1287 1196 1205 1086 718 572 348 262 231 188 94 52 1 0 0 28 217 237 259 229 374 373 120 112 195 232 258 390 388 481 410 503 496 511 504 470 434 381 391 378 371 363 542 194 330 401 295 331 248 244 127 27 0 0 0 1 13 11
792 975 970 861 1056 1268 1574 1619 1478 1412 1618 1767 1730 1802 1797 1644 1603 1617 1560 1496 1476 1497 1510 1385 1353 1390 1340 1304 1267 1109 957 678 381 322 237 221 158 97 89 13 0 0 8 100 181 183 201 217 242 66 146 192 104 66 172 251 274 335 464 436 445 437 442 386 323 313 311 240 208 227 211 360 192 144 222 287 192 12 0 0 0 0 0 8 14
841 1027 1016 905 1087 1214 1553 1595 1428 1585 1691 1732 1932 1635 1545 1605 1602 1446 1440 1500 1487 1432 1447 1360 1225 1268 1249 1160 1214 1067 1012 740 542 401 328 275 187 100 69 36 1 0 0 13 32 92 87 85 111 93 130 227 224 124 137 180 227 369 499 468 429 294 427 310 297 284 137 49 28 29 54 177 272 257 193 201 176 12 0 0 0 0 0 10 7
834 1020 1030 914 981 1280 1409 1600 1474 1634 1679 1799 1791 1758 1723 1756 1766 1700 1587 1447 1429 1368 1276 1230 1261 1292 1275 1221 1084 977 1031 950 741 406 379 315 256 179 81 15 13 0 0 3 18 14 23 40 71 127 149 149 134 84 125 240 256 385 494 434 491 372 424 300 193 129 100 46 16 0 0 1 55 152 107 46 10 0 0 0 0 0 0 2 4
850 941 1064 1004 983 1323 1516 1754 1487 1598 1847 1974 1890 1900 1891 1828 1800 1759 1661 1436 1408 1270 1163 1180 1113 1123 1129 1099 958 932 868 846 630 370 399 355 286 216 127 47 20 0 0 4 9 9 8 13 32 67 70 61 89 141 206 278 324 356 430 408 449 294 258 184 115 76 58 26 8 0 0 0 0 9 6 0 0 0 1 2 2 2 1 0 2
1193 1020 1069 1063 1269 1419 1758 1744 1728 1836 1870 1916 1869 1888 1883 1831 1779 1710 1612 1430 1199 1091 1134 1184 1060 880 902 848 758 822 904 916 629 454 403 358 282 149 44 23 24 0 0 1 5 5 5 5 10 27 25 38 84 90 192 254 334 388 385 358 318 202 180 64 24 9 3 1 0 0 0 0 0 3 7 1 0 0 2 3 3 5 4 2 1
1533 1300 1120 1217 1335 1486 1615 1550 1638 1845 1758 1746 1871 1842 1810 1822 1743 1618 1608 1460 1300 1100 1022 979 935 880 793 842 833 760 917 731 627 455 351 307 252 190 62 21 15 0 0 2 5 5 4 12 13 22 20 25 60 66 140 240 308 375 354 333 267 86 25 12 5 0 0 0 0 0 0 0 0 10 8 2 2 2 4 6 4 4 5 6 2
1614 1586 1411 1282 1488 1496 1570 1652 1729 1733 1647 1582 1822 1824 1772 1726 1684 1554 1365 1287 1185 1104 1047 967 952 935 944 921 1008 1040 880 364 349 341 263 265 270 201 115 28 6 0 0 0 23 6 7 8 7 15 10 8 23 34 157 200 333 333 321 295 65 17 5 1 0 0 0 0 0 0 0 0 0 6 24 7 2 4 5 6 7 5 10 5 4
1596 1630 1663 1400 1544 1359 1469 1493 1670 1598 1653 1633 1788 1766 1672 1652 1633 1517 1314 1246 1188 1197 1136 1020 1015 961 930 863 872 882 640 519 476 282 264 254 188 132 98 50 2 0 0 0 2 28 11 7 4 2 3 5 20 122 178 244 257 301 265 53 22 9 2 0 0 0 0 0 0 0 0 0 0 0 14 17 4 4 8 4 7 8 9 6 7
1667 1627 1620 1402 1539 1361 1377 1384 1330 1430 1688 1722 1664 1678 1665 1692 1582 1480 1386 1277 1244 1181 1274 1223 1175 1202 1102 1064 994 897 542 590 516 336 255 266 201 120 81 32 0 0 0 0 1 27 22 8 5 2 2 7 21 68 156 220 236 215 194 59 26 8 1 0 0 0 0 0 0 0 3 1 0 2 12 12 14 7 9 17 10 11 12 7 8
1702 1626 1578 1513 1577 1517 1566 1409 1368 1382 1362 1658 1615 1644 1658 1640 1540 1476 1443 1413 1312 1187 1224 1298 1225 1197 1178 996 927 784 604 597 540 440 329 212 177 82 56 26 0 0 0 0 0 28 16 7 4 5 4 12 21 53 96 153 140 125 71 13 8 2 0 0 0 0 0 0 0 0 1 4 3 11 15 15 13 12 19 11 12 12 10 7 11
1672 1588 1576 1563 1680 1572 1342 1453 1380 1306 1318 1553 1571 1552 1675 1612 1515 1455 1378 1362 1372 1326 1267 1247 1139 1072 1066 1068 970 868 625 639 569 396 257 212 133 61 34 12 0 0 0 0 0 10 5 2 3 2 7 7 16 41 114 114 101 53 15 6 2 0 0 0 0 0 0 0 0 0 0 0 4 8 11 18 10 7 8 9 7 9 10 10 7
1659 1537 1591 1539 1588 1567 1446 1320 1344 1444 1488 1431 1538 1598 1640 1650 1527 1415 1357 1424 1277 1307 1308 1235 1118 1111 1064 985 999 825 613 630 564 350 268 262 130 51 15 0 0 0 0 0 0 2 3 4 4 3 4 6 10 36 57 50 18 7 4 0 0 0 0 0 0 0 0 0 0 4 5 5 8 13 8 15 15 12 5 7 6 8 8 8 5
1603 1563 1548 1627 1662 1593 1639 1394 1359 1401 1551 1640 1499 1735 1736 1612 1478 1443 1364 1352 1266 1285 1225 1154 1096 1056 994 953 914 789 652 639 570 368 287 285 196 102 25 0 0 0 0 0 0 2 2 2 1 0 0 1 1 0 0 0 0 0 0 0 0 0 0 0 0 0 0 3 4 7 6 10 12 16 10 14 16 15 11 8 5 5 6 4 6
1427 1501 1517 1537 1579 1542 1518 1532 1325 1549 1526 1665 1681 1725 1700 1561 1489 1479 1418 1341 1334 1286 1208 1121 1134 1167 1063 1022 904 802 752 625 595 412 321 301 194 105 28 0 0 0 0 0 0 0 0 1 0 0 0 0 0 0 0 0 0 0 0 0 0 0 0 0 0 0 1 6 8 9 10 10 20 15 8 11 15 13 6 6 6 6 5 3 3
1401 1433 1401 1374 1457 1539 1521 1571 1422 1371 1287 1377 1503 1483 1432 1467 1514 1479 1398 1313 1239 1306 1228 1187 1227 1179 1132 992 895 824 751 633 615 479 336 320 241 74 5 0 0 0 0 0 0 0 0 0 0 0 0 0 0 0 0 0 0 0 0 0 0 0 0 0 0 0 0 1 3 9 15 18 18 16 15 14 11 11 11 10 9 6 5 6 6
1363 1394 1380 1427 1489 1483 1498 1515 1509 1492 1320 1373 1352 1255 1351 1249 1299 1171 1323 1147 1257 1268 1219 1194 1224 1178 1091 977 915 856 804 689 639 590 330 267 156 23 0 0 0 0 0 0 0 0 0 0 0 0 0 0 0 0 0 0 0 0 0 0 0 0 0 0 0 0 0 0 0 0 8 17 24 10 14 35 46 96 98 19 32 36 22 19 20
1296 1326 1339 1399 1496 1442 1482 1512 1589 1435 1423 1339 1328 1230 1234 1212 1234 1139 1115 1017 1218 1220 1262 1253 1188 1144 1066 938 804 725 764 812 754 590 314 212 167 18 0 0 0 0 0 0 0 0 0 0 0 0 0 0 0 0 0 0 0 0 0 0 0 0 0 0 0 0 0 0 0 0 1 23 24 23 18 22 53 63 65 61 73 83 62 27 28
1190 1251 1371 1483 1442 1472 1461 1302 1418 1444 1492 1344 1336 1278 1263 1206 1202 1225 1085 1046 1230 1149 1156 1097 1059 1052 949 858 775 681 617 625 623 530 291 117 81 25 0 0 0 0 0 0 0 0 0 0 0 0 0 0 0 0 0 0 0 0 0 0 0 0 0 0 0 0 0 0 0 0 1 14 15 28 21 10 26 26 14 33 44 28 37 60 41
1230 1348 1476 1588 1307 1348 1303 1403 1400 1357 1475 1402 1449 1400 1314 1242 1222 1235 1134 1171 1183 1116 1050 1020 1065 1014 914 815 742 646 552 534 492 60 67 16 0 0 0 0 0 0 0 0 0 0 0 0 0 0 0 0 0 0 0 0 0 0 0 0 0 0 0 0 0 0 0 0 0 0 8 7 9 18 21 19 15 12 13 14 19 25 26 36 34
1292 1448 1386 1411 1199 1536 1270 1042 1116 1212 1293 1143 1356 1392 1268 1236 1167 1160 1079 1184 1100 1074 1053 1068 1014 890 784 749 687 592 508 466 322 0 0 0 0 0 0 0 0 0 0 0 0 0 0 0 0 0 0 0 0 0 0 0 0 0 0 0 0 0 0 0 0 0 0 0 0 0 5 3 1 4 4 2 1 1 3 5 7 4 7 10 13
1189 1146 1182 1191 828 881 660 463 1041 1293 1362 1165 1262 1284 1231 1281 1241 1223 1202 1099 1013 952 1002 990 919 870 646 616 576 529 480 402 0 0 0 4 1 0 0 0 0 0 0 0 0 0 0 0 0 0 0 0 0 0 0 0 0 0 0 0 0 0 0 0 0 0 0 0 0 1 6 4 4 6 6 5 4 3 3 1 0 0 0 1 7
1054 1046 1039 917 677 580 390 483 997 740 1035 1320 1195 1329 1190 1311 1305 1231 1164 1092 1037 896 926 935 881 880 686 558 504 501 470 276 71 168 0 8 2 0 0 0 0 0 1 0 0 0 0 0 0 0 0 0 0 0 0 0 0 0 0 0 0 0 0 0 0 0 0 0 0 11 8 6 7 12 8 6 8 8 7 5 4 3 6 6 2
824 762 650 642 685 214 538 516 850 619 945 1341 1138 1384 1369 1260 1250 1164 1136 1105 1065 941 871 869 883 817 584 491 463 460 433 386 313 294 159 58 3 0 0 0 0 0 0 0 0 0 0 0 0 0 0 0 0 0 0 0 0 0 0 0 0 0 0 0 0 0 0 0 0 4 18 15 17 19 18 12 11 8 10 9 11 8 7 10 9
546 500 363 346 577 134 518 630 799 762 996 1054 1041 1048 1120 1234 1169 1120 1132 998 940 890 866 875 856 636 625 501 447 153 400 412 356 327 223 82 4 1 1 2 2 0 1 1 0 0 0 0 0 0 0 0 0 0 0 0 0 0 0 0 0 0 0 0 0 0 0 0 0 0 2 9 17 16 16 23 26 21 18 14 18 18 14 12 12
310 284 222 165 119 138 294 504 630 936 805 893 814 842 1018 1125 1147 1172 1171 950 878 768 730 707 723 604 581 627 546 463 398 384 404 332 278 113 5 3 2 4 5 2 1 2 0 0 0 0 0 0 0 0 0 0 0 0 0 0 0 0 0 0 0 0 0 0 0 0 0 0 0 0 4 11 18 26 20 22 23 21 32 30 27 19 21
109 100 80 50 16 0 0 397 485 709 765 818 765 775 871 1082 1118 1120 968 796 876 847 721 738 710 626 536 457 398 398 454 374 445 343 281 142 15 4 2 3 5 0 1 3 2 2 2 1 0 0 0 0 0 0 0 0 0 0 0 0 0 0 0 0 0 0 0 0 0 0 0 0 0 4 16 18 17 20 18 21 28 33 35 25 33
0 0 28 19 13 4 0 0 0 269 540 595 445 759 789 970 1123 1022 882 716 740 944 853 807 777 515 265 307 421 378 471 395 279 382 279 127 28 3 2 2 7 9 1 1 1 0 3 6 0 0 0 0 0 0 0 0 0 0 0 0 0 0 0 0 0 0 0 0 0 0 0 0 0 0 5 14 24 27 22 18 18 32 42 29 32
0 0 0 0 19 20 2 1 1 5 8 96 176 376 638 759 994 968 751 699 715 796 940 881 820 629 514 254 272 264 369 384 325 320 287 149 107 3 2 1 1 14 5 3 0 3 1 1 1 0 0 0 0 0 0 0 0 0 0 0 0 0 0 0 0 0 0 0 0 0 0 0 0 0 0 4 11 20 21 14 16 26 35 34 24
0 0 0 0 0 0 0 1 5 18 60 126 234 387 526 694 869 897 764 727 738 769 809 883 758 481 648 623 454 197 263 357 274 271 297 133 138 33 1 2 5 3 2 2 8 14 11 6 1 1 0 2 1 0 0 0 2 3 0 2 1 0 0 0 0 0 0 0 0 0 0 0 0 0 0 0 1 4 6 5 9 10 23 44 35
0 0 0 0 0 0 0 0 1 6 31 79 234 313 579 591 473 770 779 658 727 748 663 766 640 548 459 51 128 222 248 365 406 235 175 192 73 69 17 3 6 7 2 2 9 20 24 9 5 2 4 4 0 0 5 2 1 7 4 4 0 1 0 0 0 0 0 0 0 0 0 0 0 0 0 0 0 0 0 0 0 2 11 23 31
0 0 0 0 0 0 0 0 0 2 8 28 188 237 385 242 288 595 477 444 612 514 555 607 458 297 164 174 57 217 4 398 395 332 196 150 53 71 77 34 24 13 6 4 13 24 25 14 3 3 6 0 1 0 2 2 6 4 1 4 4 2 0 0 0 0 0 0 0 0 0 0 0 0 0 0 0 0 0 0 0 0 0 4 8
0 0 0 0 0 0 0 0 0 0 2 6 104 240 296 217 20 636 529 413 494 450 521 0 367 293 199 301 375 339 348 389 326 239 166 110 148 41 38 88 57 30 15 21 30 35 26 14 7 7 14 8 1 1 1 0 8 3 2 8 6 4 0 0 0 0 0 0 0 0 0 0 0 0 0 0 0 0 0 0 0 0 0 0 6
0 0 0 0 0 0 0 0 0 2 1 4 42 238 322 329 275 339 456 197 351 491 259 0 246 260 107 136 324 379 358 357 212 138 95 120 123 10 8 67 48 34 34 36 37 24 14 14 13 15 9 10 3 2 4 2 1 2 6 6 4 1 0 0 0 0 0 0 0 0 0 0 0 0 0 0 0 0 0 0 0 0 0 0 0
0 0 0 0 0 1 4 4 3 5 2 3 26 182 180 186 307 112 0 223 268 269 56 237 275 87 0 21 288 426 356 379 143 0 5 17 10 2 1 9 26 33 35 30 32 29 17 14 13 10 6 0 0 2 4 3 4 8 6 1 1 0 0 0 0 0 0 0 0 0 0 0 0 0 0 0 0 0 0 0 0 0 0 0 0
0 0 0 0 1 4 5 5 4 5 2 2 16 122 157 96 110 125 196 204 277 362 381 282 170 0 26 134 149 111 186 279 201 83 27 10 5 3 9 0 5 16 10 9 29 20 6 11 16 7 2 0 0 0 0 3 4 4 1 0 0 0 0 0 0 0 0 0 0 0 0 0 0 0 0 0 0 0 0 0 0 0 0 0 0
0 0 0 0 2 4 4 6 5 4 3 5 18 88 217 158 57 44 95 0 10 404 350 272 31 0 0 8 6 8 8 69 119 183 139 12 3 8 6 3 1 4 16 16 15 8 6 5 6 4 3 1 0 0 0 4 2 1 0 0 0 0 0 0 0 0 0 0 0 0 0 0 0 0 0 0 0 0 0 0 0 0 0 0 0
0 0 0 0 2 3 2 6 4 6 5 6 19 54 131 39 22 14 0 0 231 356 258 247 112 1 0 0 0 1 5 7 8 11 9 8 3 9 10 0 3 3 8 6 5 8 10 10 11 5 1 1 0 1 0 0 0 0 0 0 0 0 0 0 0 0 0 0 0 0 0 0 0 0 0 0 0 0 0 0 0 0 0 0 0
0 0 0 0 4 2 4 7 8 5 7 13 19 24 15 10 10 7 0 0 56 79 2 1 0 0 6 7 12 20 12 8 11 7 0 11 24 15 1 4 16 3 2 5 13 6 11 11 10 2 0 0 0 0 0 0 0 0 0 0 0 0 0 0 0 0 0 0 0 0 0 0 0 0 0 0 0 0 0 0 0 0 0 0 0
0 0 0 0 4 5 3 4 6 7 11 16 19 22 15 10 8 80 7 0 0 0 0 0 0 0 1 2 1 14 14 15 15 7 1 26 54 26 17 14 8 12 7 6 5 14 16 12 1 0 0 0 0 0 0 0 0 0 0 0 0 0 0 0 0 0 0 0 0 0 0 0 0 0 0 0 0 0 0 0 0 0 0 0 0
0 0 0 0 3 4 1 4 5 8 12 11 16 20 12 4 6 15 2 0 0 3 15 13 14 6 0 10 6 6 8 8 12 11 3 6 18 13 3 6 1 6 8 4 6 5 2 0 0 0 0 0 0 0 0 0 0 0 0 0 0 0 0 0 0 0 0 0 0 0 0 0 0 0 0 0 0 0 0 0 0 0 0 0 0
0 0 0 0 3 3 4 6 4 8 11 16 12 14 16 5 1 4 0 0 6 8 2 2 5 1 0 5 14 17 17 14 5 2 1 2 3 8 9 6 5 6 4 4 1 0 0 0 0 0 0 0 0 0 0 0 0 0 0 0 0 0 0 0 0 0 0 0 0 0 0 0 0 0 0 0 0 0 0 0 0 0 0 0 0
0 0 0 1 2 4 2 8 7 10 10 10 20 20 14 4 0 0 1 0 10 6 2 1 2 5 2 5 14 14 17 7 10 10 12 10 10 6 1 4 1 1 0 0 0 0 0 0 0 0 0 0 0 0 0 0 0 0 0 0 0 0 0 0 0 0 0 0 0 0 0 0 0 0 0 0 0 0 0 0 0 0 0 0 0
0 0 0 1 1 4 2 6 6 11 9 6 15 13 12 11 6 4 11 12 10 6 8 6 8 4 0 1 8 9 11 9 12 14 13 12 10 6 2 2 0 0 0 0 0 0 0 0 0 0 0 0 0 0 0 0 0 0 0 0 0 0 0 0 0 0 0 0 0 0 0 0 0 0 0 0 0 0 0 0 0 0 0 0 0
0 0 0 0 1 2 4 5 4 3 9 11 7 7 6 10 15 0 8 8 6 4 0 8 5 1 0 0 3 8 8 8 12 13 9 7 3 2 0 0 0 0 0 0 0 0 0 0 0 0 0 0 0 0 0 0 0 0 0 0 0 0 0 0 0 0 0 0 0 0 0 0 0 0 0 0 0 0 0 0 0 0 0 0 0
0 0 0 0 0 2 3 6 6 3 1 4 7 5 4 0 0 0 2 8 7 3 0 0 0 0 0 0 2 6 6 4 7 10 3 4 4 0 0 0 0 0 0 0 0 0 0 0 0 0 0 0 0 0 0 0 0 0 0 0 0 0 0 0 0 0 0 0 0 0 0 0 0 0 0 0 0 0 0 0 0 0 0 0 0
0 0 0 0 1 2 5 5 4 6 4 4 7 8 2 0 1 2 3 1 0 0 2 3 3 0 0 0 0 3 6 6 6 5 2 3 0 0 0 0 0 0 0 0 0 0 0 0 0 0 0 0 0 0 0 0 0 0 0 0 0 0 0 0 0 0 0 0 0 0 0 0 0 0 0 0 0 0 0 0 0 0 0 0 0
0 0 0 1 1 2 5 4 4 6 9 6 4 6 4 5 10 2 0 0 0 3 4 2 0 0 0 0 0 1 3 3 5 2 1 0 0 0 0 0 0 0 0 0 0 0 0 0 0 0 0 0 0 0 0 0 0 0 0 0 0 0 0 0 0 0 0 0 0 0 0 0 0 0 0 0 0 0 0 0 0 0 0 0 0
0 0 0 0 1 2 3 3 2 5 8 6 2 3 6 3 4 9 0 3 3 0 1 0 0 0 0 0 0 1 2 2 1 0 0 0 0 0 0 0 0 0 0 0 0 0 0 0 0 0 0 0 0 0 0 0 0 0 0 0 0 0 0 0 0 0 0 0 0 0 0 0 0 0 0 0 0 0 0 0 0 0 0 0 0
0 0 0 0 1 3 2 3 2 0 2 7 4 2 3 3 1 3 2 2 0 1 1 0 0 2 0 0 0 1 1 1 0 0 0 0 0 0 0 0 0 0 0 0 0 0 0 0 0 0 0 0 0 0 0 0 0 0 0 0 0 0 0 0 0 0 0 0 0 0 0 0 0 0 0 0 0 0 0 0 0 0 0 0 0
0 0 1 2 0 1 1 1 1 2 0 2 8 10 0 0 1 7 1 0 0 4 3 0 0 3 0 1 0 1 0 0 0 0 0 0 0 0 0 0 0 0 0 0 0 0 0 0 0 0 0 0 0 0 0 0 0 0 0 0 0 0 0 0 0 0 0 0 0 0 0 0 0 0 0 0 0 0 0 0 0 0 0 0 0
Wind_Speed
14 11 8 9 7 7 6 8 9 11 14 16 15 13 11 11 12 14 15 18 18 17 18 18 19 21 20 19 20 20 21 22 23 23 23 24 24 nan nan nan nan nan nan 21 20 21 22 23 23 23 23 24 25 25 24 25 25 24 25 27 27 27 27 27 27 25 24 24 24 25 24 23 24 24 26 26 25 23 nan nan nan nan nan nan nan
13 12 10 11 13 12 9 8 7 9 14 17 17 15 14 14 14 14 15 17 18 18 17 17 19 21 20 19 19 20 22 22 22 22 23 24 24 nan nan nan nan nan nan 21 22 22 22 22 23 nan 23 24 25 nan 24 25 25 25 26 27 27 27 26 27 26 25 23 22 23 22 23 25 24 23 25 24 23 nan nan nan nan nan nan nan nan
10 11 12 12 15 14 10 7 7 7 10 14 14 15 15 15 15 16 16 17 18 18 18 19 19 19 19 19 19 19 21 22 21 21 22 22 23 24 nan nan nan nan nan nan nan nan nan nan 22 nan 23 23 24 24 24 24 24 25 26 26 27 26 25 25 23 22 23 nan nan nan nan 22 23 23 22 22 21 nan nan nan nan nan nan nan nan
11 12 11 13 15 13 10 9 6 6 8 8 9 10 13 14 15 17 17 18 18 18 19 20 20 20 20 20 19 19 19 20 20 20 21 22 23 23 nan nan nan nan nan nan nan nan nan nan nan 21 21 22 22 nan 23 23 23 23 24 24 24 24 23 21 21 20 nan nan nan nan nan nan nan 21 21 nan nan nan nan nan nan nan nan nan nan
12 11 11 10 11 12 13 10 11 9 7 6 5 6 8 11 13 15 17 18 19 19 19 20 20 20 20 21 21 21 21 21 21 22 22 22 22 22 22 nan nan nan nan nan nan nan nan nan nan nan nan nan nan 21 21 21 21 21 22 22 21 21 20 18 18 nan nan nan nan nan nan nan nan nan nan nan nan nan nan nan nan nan nan nan nan
12 11 11 10 10 11 11 10 9 7 6 6 5 5 6 7 8 10 13 15 16 18 19 20 21 22 22 22 22 22 22 23 23 23 23 22 22 21 nan nan nan nan nan nan nan nan nan nan nan nan nan nan nan nan 20 20 21 21 21 22 21 20 19 nan nan nan nan nan nan nan nan nan nan nan nan nan nan nan nan nan nan nan nan nan nan
12 10 10 9 9 9 8 7 7 7 7 8 8 7 7 7 7 7 9 9 11 13 15 17 19 21 22 22 23 24 25 25 24 23 22 22 21 21 nan nan nan nan nan nan nan nan nan nan nan nan nan nan nan nan 22 22 23 23 23 22 22 nan nan nan nan nan nan nan nan nan nan nan nan nan nan nan nan nan nan nan nan nan nan nan nan
8 9 8 8 6 7 8 9 8 9 10 10 10 9 9 9 9 8 7 7 8 9 10 11 14 16 17 19 20 23 25 25 24 23 23 23 23 23 24 nan nan nan nan nan nan nan nan nan nan nan nan nan nan nan 27 27 27 26 25 25 nan nan nan nan nan nan nan nan nan nan nan nan nan nan nan nan nan nan nan nan nan nan nan nan nan
8 7 7 7 6 9 9 8 11 13 12 12 10 10 10 10 10 10 10 9 9 9 8 9 10 11 12 12 14 17 18 19 19 20 21 22 23 24 nan nan nan nan nan nan nan nan nan nan nan nan nan nan nan 28 29 30 30 28 27 nan nan nan nan nan nan nan nan nan nan nan nan nan nan nan nan nan nan nan nan nan nan nan nan nan nan
5 6 6 6 6 9 10 9 11 11 13 12 11 11 11 11 10 10 11 11 11 11 10 10 10 11 11 11 12 13 13 12 13 14 15 16 18 19 nan nan nan nan nan nan nan nan nan nan nan nan nan nan nan nan 28 28 28 27 26 nan nan nan nan nan nan nan nan nan nan nan nan nan nan nan nan nan nan nan nan nan nan nan nan nan nan
6 6 5 4 5 9 7 8 8 8 8 8 9 10 11 10 11 11 11 12 12 12 12 11 12 12 12 11 11 12 12 12 12 12 13 14 15 nan nan nan nan nan nan nan nan nan nan nan nan nan nan nan nan nan nan 26 26 25 nan nan nan nan nan nan nan nan nan nan nan nan nan nan nan nan nan nan nan nan nan nan nan nan nan nan nan
8 6 6 4 7 10 8 5 7 9 8 7 7 9 10 10 10 11 11 11 12 11 12 11 11 11 12 12 12 12 13 13 14 13 13 14 15 nan nan nan nan nan nan nan nan nan nan nan nan nan nan nan nan nan 25 25 25 nan nan nan nan nan nan nan nan nan nan nan nan nan nan nan nan nan nan nan nan nan nan nan nan nan nan nan nan
7 8 6 6 5 10 11 9 6 9 8 8 8 9 9 9 10 10 10 11 12 13 12 12 10 11 11 11 11 12 12 13 14 14 14 14 16 nan nan nan nan nan nan nan nan nan nan nan nan nan nan nan nan nan nan nan nan nan nan nan nan nan nan nan nan nan nan nan nan nan nan nan nan nan nan nan nan nan nan nan nan nan nan nan nan
6 6 5 6 6 7 10 9 5 5 7 7 8 8 8 9 10 10 10 10 12 14 14 14 12 12 12 12 12 12 12 13 14 14 14 15 16 17 nan nan nan nan nan nan nan nan nan nan nan nan nan nan nan nan nan nan nan nan nan nan nan nan nan nan nan nan nan nan nan nan nan nan nan nan nan nan nan nan nan nan nan nan nan nan nan
9 6 6 5 5 5 7 8 5 4 4 4 7 7 7 9 9 9 10 10 12 14 14 15 14 14 14 13 14 14 14 14 15 15 16 16 17 19 nan nan nan nan nan nan nan nan nan nan nan nan nan nan nan nan nan nan nan nan nan nan nan nan nan nan nan nan nan nan nan nan nan nan nan nan nan nan nan nan nan nan nan nan nan nan nan
9 9 8 5 5 5 5 6 10 8 5 3 6 5 6 7 8 9 9 10 12 14 14 16 15 15 15 15 15 16 16 17 17 18 18 18 19 nan nan nan nan nan nan nan nan nan nan nan nan nan nan nan nan nan nan nan nan nan nan nan nan nan nan nan nan nan nan nan nan nan nan nan nan nan nan nan nan nan nan nan nan nan nan nan nan
10 10 9 8 7 6 6 6 6 9 8 8 6 9 0 7 8 9 7 7 10 12 14 15 15 16 16 16 16 16 16 18 19 20 20 20 22 nan nan nan nan nan nan nan nan nan nan nan nan nan nan nan nan nan nan nan nan nan nan nan nan nan nan nan nan nan nan nan nan nan nan nan nan nan nan nan nan nan nan nan nan nan nan nan nan
9 10 10 9 9 8 7 6 7 8 7 9 9 12 8 8 8 10 10 7 10 11 13 13 14 14 14 15 15 16 17 19 19 21 21 21 22 nan nan nan nan nan nan nan nan nan nan nan nan nan nan nan nan nan nan nan nan nan nan nan nan nan nan nan nan nan nan nan nan nan nan nan nan nan nan nan nan nan nan nan nan nan nan nan nan
8 9 9 9 8 6 8 9 7 8 9 8 7 8 13 11 10 11 12 11 11 12 13 14 14 14 15 15 15 16 16 17 17 18 18 18 nan nan nan nan nan nan nan nan nan nan nan nan nan nan nan nan nan nan nan nan nan nan nan nan nan nan nan nan nan nan nan nan nan nan nan nan nan nan nan nan nan nan nan nan nan nan nan nan nan
8 9 10 8 10 7 10 9 8 8 10 9 9 10 11 12 12 13 13 14 14 14 15 16 16 16 16 16 16 15 14 15 18 nan nan nan nan nan nan nan nan nan nan nan nan nan nan nan nan nan nan nan nan nan nan nan nan nan nan nan nan nan nan nan nan nan nan nan nan nan nan nan nan nan nan nan nan nan nan nan nan nan nan nan nan
9 10 10 9 10 10 11 9 6 10 10 11 10 11 11 14 12 14 13 16 16 16 17 19 18 18 17 17 17 15 14 14 15 nan nan nan nan nan nan nan nan nan nan nan nan nan nan nan nan nan nan nan nan nan nan nan nan nan nan nan nan nan nan nan nan nan nan nan nan nan nan nan nan nan nan nan nan nan nan nan nan nan nan nan nan
10 11 10 10 12 10 10 9 8 11 11 11 11 11 12 11 12 13 13 14 16 17 17 16 17 16 18 16 15 16 15 15 nan nan nan nan nan nan nan nan nan nan nan nan nan nan nan nan nan nan nan nan nan nan nan nan nan nan nan nan nan nan nan nan nan nan nan nan nan nan nan nan nan nan nan nan nan nan nan nan nan nan nan nan nan
12 12 11 12 12 9 9 8 10 9 10 9 13 13 12 12 14 15 15 15 17 17 16 18 16 18 16 17 17 16 17 17 nan 17 nan nan nan nan nan nan nan nan nan nan nan nan nan nan nan nan nan nan nan nan nan nan nan nan nan nan nan nan nan nan nan nan nan nan nan nan nan nan nan nan nan nan nan nan nan nan nan nan nan nan nan
13 13 14 11 12 11 10 9 10 9 8 9 14 13 13 12 13 13 15 16 16 17 17 18 18 18 18 19 18 18 19 18 19 21 20 nan nan nan nan nan nan nan nan nan nan nan nan nan nan nan nan nan nan nan nan nan nan nan nan nan nan nan nan nan nan nan nan nan nan nan nan nan nan nan nan nan nan nan nan nan nan nan nan nan nan
14 12 12 11 13 11 10 10 10 10 9 10 13 14 12 13 12 13 14 15 16 16 16 18 18 18 20 19 19 19 19 18 18 17 18 nan nan nan nan nan nan nan nan nan nan nan nan nan nan nan nan nan nan nan nan nan nan nan nan nan nan nan nan nan nan nan nan nan nan nan nan nan nan nan nan nan nan nan nan nan nan nan nan nan nan
13 14 13 12 12 12 12 11 10 11 10 11 11 13 13 12 13 12 14 15 15 16 16 17 18 18 18 19 20 19 19 19 18 18 19 20 nan nan nan nan nan nan nan nan nan nan nan nan nan nan nan nan nan nan nan nan nan nan nan nan nan nan nan nan nan nan nan nan nan nan nan nan nan nan nan nan nan nan nan nan nan nan nan nan nan
14 12 nan nan nan nan nan 12 12 11 10 13 12 13 11 13 14 14 15 15 15 16 16 17 17 17 17 18 20 18 19 19 19 19 19 20 nan nan nan nan nan nan nan nan nan nan nan nan nan nan nan nan nan nan nan nan nan nan nan nan nan nan nan nan nan nan nan nan nan nan nan nan nan nan nan nan nan nan nan nan nan nan nan nan nan
nan nan nan nan nan nan nan nan nan 13 12 13 14 13 12 13 17 18 17 17 17 16 17 18 18 18 18 18 18 19 19 18 19 18 20 20 nan nan nan nan nan nan nan nan nan nan nan nan nan nan nan nan nan nan nan nan nan nan nan nan nan nan nan nan nan nan nan nan nan nan nan nan nan nan nan nan nan nan nan nan nan nan nan nan nan
nan nan nan nan nan nan nan nan nan nan nan nan 13 13 13 14 18 20 20 20 19 19 19 20 19 20 18 20 19 20 20 20 19 19 20 21 22 nan nan nan nan nan nan nan nan nan nan nan nan nan nan nan nan nan nan nan nan nan nan nan nan nan nan nan nan nan nan nan nan nan nan nan nan nan nan nan nan nan nan nan nan nan nan nan nan
nan nan nan nan nan nan nan nan nan nan nan 16 15 16 16 17 18 21 22 22 22 22 21 21 20 23 18 22 20 20 20 21 21 20 21 23 23 nan nan nan nan nan nan nan nan nan nan nan nan nan nan nan nan nan nan nan nan nan nan nan nan nan nan nan nan nan nan nan nan nan nan nan nan nan nan nan nan nan nan nan nan nan nan nan nan
nan nan nan nan nan nan nan nan nan nan nan nan 18 19 21 21 20 20 24 24 23 25 21 23 22 24 22 nan 22 21 22 23 23 23 22 23 nan nan nan nan nan nan nan nan nan nan nan nan nan nan nan nan nan nan nan nan nan nan nan nan nan nan nan nan nan nan nan nan nan nan nan nan nan nan nan nan nan nan nan nan nan nan nan nan nan
nan nan nan nan nan nan nan nan nan nan nan nan 19 22 23 24 21 21 24 25 23 25 23 24 25 24 24 25 nan 23 nan 25 26 25 25 25 nan nan nan nan nan nan nan nan nan nan nan nan nan nan nan nan nan nan nan nan nan nan nan nan nan nan nan nan nan nan nan nan nan nan nan nan nan nan nan nan nan nan nan nan nan nan nan nan nan
nan nan nan nan nan nan nan nan nan nan nan nan 21 22 25 24 nan 23 25 26 22 24 26 nan 26 25 26 26 25 25 26 27 27 28 29 27 27 nan nan nan nan nan nan nan nan nan nan nan nan nan nan nan nan nan nan nan nan nan nan nan nan nan nan nan nan nan nan nan nan nan nan nan nan nan nan nan nan nan nan nan nan nan nan nan nan
nan nan nan nan nan nan nan nan nan nan nan nan nan 24 26 25 24 23 24 26 24 24 25 nan 27 27 26 27 28 27 27 28 29 30 nan 28 28 nan nan nan nan nan nan nan nan nan nan nan nan nan nan nan nan nan nan nan nan nan nan nan nan nan nan nan nan nan nan nan nan nan nan nan nan nan nan nan nan nan nan nan nan nan nan nan nan
nan nan nan nan nan nan nan nan nan nan nan nan nan 26 27 27 26 25 nan 26 25 24 nan 25 26 nan nan nan 28 29 27 28 27 nan nan nan nan nan nan nan nan nan nan nan nan nan nan nan nan nan nan nan nan nan nan nan nan nan nan nan nan nan nan nan nan nan nan nan nan nan nan nan nan nan nan nan nan nan nan nan nan nan nan nan nan
nan nan nan nan nan nan nan nan nan nan nan nan nan 27 29 nan 27 26 26 27 24 23 24 26 24 nan nan 27 27 28 28 28 28 nan nan nan nan nan nan nan nan nan nan nan nan nan nan nan nan nan nan nan nan nan nan nan nan nan nan nan nan nan nan nan nan nan nan nan nan nan nan nan nan nan nan nan nan nan nan nan nan nan nan nan nan
nan nan nan nan nan nan nan nan nan nan nan nan nan nan 29 32 nan nan nan nan nan 23 24 26 nan nan nan nan nan nan nan nan 29 29 32 nan nan nan nan nan nan nan nan nan nan nan nan nan nan nan nan nan nan nan nan nan nan nan nan nan nan nan nan nan nan nan nan nan nan nan nan nan nan nan nan nan nan nan nan nan nan nan nan nan nan
nan nan nan nan nan nan nan nan nan nan nan nan nan nan 30 nan nan nan nan nan 25 24 23 27 30 nan nan nan nan nan nan nan nan nan nan nan nan nan nan nan nan nan nan nan nan nan nan nan nan nan nan nan nan nan nan nan nan nan nan nan nan nan nan nan nan nan nan nan nan nan nan nan nan nan nan nan nan nan nan nan nan nan nan nan nan
nan nan nan nan nan nan nan nan nan nan nan nan nan nan nan nan nan nan nan nan nan nan nan nan nan nan nan nan nan nan nan nan nan nan nan nan nan nan nan nan nan nan nan nan nan nan nan nan nan nan nan nan nan nan nan nan nan nan nan nan nan nan nan nan nan nan nan nan nan nan nan nan nan nan nan nan nan nan nan nan nan nan nan nan nan
nan nan nan nan nan nan nan nan nan nan nan nan nan nan nan nan nan nan nan nan nan nan nan nan nan nan nan nan nan nan nan nan nan nan nan nan nan nan nan nan nan nan nan nan nan nan nan nan nan nan nan nan nan nan nan nan nan nan nan nan nan nan nan nan nan nan nan nan nan nan nan nan nan nan nan nan nan nan nan nan nan nan nan nan nan
nan nan nan nan nan nan nan nan nan nan nan nan nan nan nan nan nan nan nan nan nan nan nan nan nan nan nan nan nan nan nan nan nan nan nan nan nan nan nan nan nan nan nan nan nan nan nan nan nan nan nan nan nan nan nan nan nan nan nan nan nan nan nan nan nan nan nan nan nan nan nan nan nan nan nan nan nan nan nan nan nan nan nan nan nan
nan nan nan nan nan nan nan nan nan nan nan nan nan nan nan nan nan nan nan nan nan nan nan nan nan nan nan nan nan nan nan nan nan nan nan nan nan nan nan nan nan nan nan nan nan nan nan nan nan nan nan nan nan nan nan nan nan nan nan nan nan nan nan nan nan nan nan nan nan nan nan nan nan nan nan nan nan nan nan nan nan nan nan nan nan
nan nan nan nan nan nan nan nan nan nan nan nan nan nan nan nan nan nan nan nan nan nan nan nan nan nan nan nan nan nan nan nan nan nan nan nan nan nan nan nan nan nan nan nan nan nan nan nan nan nan nan nan nan nan nan nan nan nan nan nan nan nan nan nan nan nan nan nan nan nan nan nan nan nan nan nan nan nan nan nan nan nan nan nan nan
nan nan nan nan nan nan nan nan nan nan nan nan nan nan nan nan nan nan nan nan nan nan nan nan nan nan nan nan nan nan nan nan nan nan nan nan nan nan nan nan nan nan nan nan nan nan nan nan nan nan nan nan nan nan nan nan nan nan nan nan nan nan nan nan nan nan nan nan nan nan nan nan nan nan nan nan nan nan nan nan nan nan nan nan nan
nan nan nan nan nan nan nan nan nan nan nan nan nan nan nan nan nan nan nan nan nan nan nan nan nan nan nan nan nan nan nan nan nan nan nan nan nan nan nan nan nan nan nan nan nan nan nan nan nan nan nan nan nan nan nan nan nan nan nan nan nan nan nan nan nan nan nan nan nan nan nan nan nan nan nan nan nan nan nan nan nan nan nan nan nan
nan nan nan nan nan nan nan nan nan nan nan nan nan nan nan nan nan nan nan nan nan nan nan nan nan nan nan nan nan nan nan nan nan nan nan nan nan nan nan nan nan nan nan nan nan nan nan nan nan nan nan nan nan nan nan nan nan nan nan nan nan nan nan nan nan nan nan nan nan nan nan nan nan nan nan nan nan nan nan nan nan nan nan nan nan
nan nan nan nan nan nan nan nan nan nan nan nan nan nan nan nan nan nan nan nan nan nan nan nan nan nan nan nan nan nan nan nan nan nan nan nan nan nan nan nan nan nan nan nan nan nan nan nan nan nan nan nan nan nan nan nan nan nan nan nan nan nan nan nan nan nan nan nan nan nan nan nan nan nan nan nan nan nan nan nan nan nan nan nan nan
nan nan nan nan nan nan nan nan nan nan nan nan nan nan nan nan nan nan nan nan nan nan nan nan nan nan nan nan nan nan nan nan nan nan nan nan nan nan nan nan nan nan nan nan nan nan nan nan nan nan nan nan nan nan nan nan nan nan nan nan nan nan nan nan nan nan nan nan nan nan nan nan nan nan nan nan nan nan nan nan nan nan nan nan nan
nan nan nan nan nan nan nan nan nan nan nan nan nan nan nan nan nan nan nan nan nan nan nan nan nan nan nan nan nan nan nan nan nan nan nan nan nan nan nan nan nan nan nan nan nan nan nan nan nan nan nan nan nan nan nan nan nan nan nan nan nan nan nan nan nan nan nan nan nan nan nan nan nan nan nan nan nan nan nan nan nan nan nan nan nan
nan nan nan nan nan nan nan nan nan nan nan nan nan nan nan nan nan nan nan nan nan nan nan nan nan nan nan nan nan nan nan nan nan nan nan nan nan nan nan nan nan nan nan nan nan nan nan nan nan nan nan nan nan nan nan nan nan nan nan nan nan nan nan nan nan nan nan nan nan nan nan nan nan nan nan nan nan nan nan nan nan nan nan nan nan
nan nan nan nan nan nan nan nan nan nan nan nan nan nan nan nan nan nan nan nan nan nan nan nan nan nan nan nan nan nan nan nan nan nan nan nan nan nan nan nan nan nan nan nan nan nan nan nan nan nan nan nan nan nan nan nan nan nan nan nan nan nan nan nan nan nan nan nan nan nan nan nan nan nan nan nan nan nan nan nan nan nan nan nan nan
Wind_Direction
62 61 67 62 49 50 2 318 304 294 277 269 266 263 255 256 256 253 254 253 254 252 251 249 248 249 248 245 243 242 240 238 236 233 229 229 230 nan nan nan nan nan nan 236 239 243 245 245 245 246 248 249 249 249 249 249 250 250 251 252 251 252 252 252 250 248 245 244 246 247 251 255 256 259 262 258 255 251 nan nan nan nan nan nan nan
41 60 61 60 50 54 29 337 318 290 278 268 260 257 258 255 252 249 248 254 256 258 258 252 248 248 248 247 247 245 243 240 237 234 232 230 230 nan nan nan nan nan nan 234 239 243 246 248 248 nan 250 253 254 nan 253 254 256 256 256 256 256 256 254 254 254 253 251 251 251 251 253 255 259 261 263 263 260 nan nan nan nan nan nan nan nan
28 43 50 46 49 55 41 1 344 301 274 268 262 260 259 255 252 249 249 250 249 250 250 249 248 248 249 248 248 246 244 243 239 235 233 232 231 231 nan nan nan nan nan nan nan nan nan nan 247 nan 251 254 256 256 256 258 260 259 259 258 257 257 255 254 253 254 256 nan nan nan nan 256 258 260 261 263 263 nan nan nan nan nan nan nan nan
22 38 44 43 46 52 43 14 3 338 309 288 272 264 262 258 253 254 251 249 249 248 247 247 245 245 246 246 245 245 245 244 239 234 232 230 230 231 nan nan nan nan nan nan nan nan nan nan nan 247 249 254 257 nan 260 263 264 262 259 258 257 255 255 253 252 252 nan nan nan nan nan nan nan 258 260 nan nan nan nan nan nan nan nan nan nan
24 32 39 43 47 51 39 17 6 354 335 322 320 302 283 272 264 259 257 255 254 252 251 249 247 246 244 244 244 243 241 239 235 232 228 226 227 228 229 nan nan nan nan nan nan nan nan nan nan nan nan nan nan 259 263 267 267 266 264 260 258 257 254 252 250 nan nan nan nan nan nan nan nan nan nan nan nan nan nan nan nan nan nan nan nan
24 30 38 37 42 47 29 15 357 344 343 350 353 336 320 300 286 276 268 262 261 260 257 253 251 250 248 246 246 245 245 242 238 234 230 227 226 227 nan nan nan nan nan nan nan nan nan nan nan nan nan nan nan nan 266 267 268 267 264 261 260 257 255 nan nan nan nan nan nan nan nan nan nan nan nan nan nan nan nan nan nan nan nan nan nan
11 25 32 34 42 41 18 7 346 341 346 357 360 350 338 328 317 303 283 274 267 264 261 259 257 255 255 254 250 250 250 247 243 239 237 235 233 231 nan nan nan nan nan nan nan nan nan nan nan nan nan nan nan nan 267 266 265 262 260 260 259 nan nan nan nan nan nan nan nan nan nan nan nan nan nan nan nan nan nan nan nan nan nan nan nan
3 10 17 20 38 33 19 11 359 351 355 357 352 345 339 332 327 313 301 291 279 271 266 264 263 263 262 261 259 257 255 252 249 246 245 243 241 239 238 nan nan nan nan nan nan nan nan nan nan nan nan nan nan nan 268 266 264 263 262 262 nan nan nan nan nan nan nan nan nan nan nan nan nan nan nan nan nan nan nan nan nan nan nan nan nan
355 352 347 4 15 16 8 30 7 360 0 356 349 341 333 324 324 320 312 306 300 289 282 276 272 270 270 271 270 263 260 258 253 250 247 245 244 243 nan nan nan nan nan nan nan nan nan nan nan nan nan nan nan 266 268 268 267 265 264 nan nan nan nan nan nan nan nan nan nan nan nan nan nan nan nan nan nan nan nan nan nan nan nan nan nan
346 337 335 353 344 10 351 9 9 9 352 350 349 343 334 328 329 323 314 312 307 303 297 289 284 279 278 278 278 274 272 267 256 248 242 240 240 240 nan nan nan nan nan nan nan nan nan nan nan nan nan nan nan nan 266 267 267 265 264 nan nan nan nan nan nan nan nan nan nan nan nan nan nan nan nan nan nan nan nan nan nan nan nan nan nan
349 337 331 332 343 341 338 348 348 2 355 341 342 337 334 332 331 327 322 318 314 310 303 298 292 289 288 286 284 282 281 275 265 251 242 239 240 nan nan nan nan nan nan nan nan nan nan nan nan nan nan nan nan nan nan 266 265 263 nan nan nan nan nan nan nan nan nan nan nan nan nan nan nan nan nan nan nan nan nan nan nan nan nan nan nan
357 358 348 335 335 340 343 343 352 338 350 334 328 329 327 326 323 322 323 320 315 309 300 296 296 294 295 293 290 286 282 277 270 261 250 244 243 nan nan nan nan nan nan nan nan nan nan nan nan nan nan nan nan nan 263 261 260 nan nan nan nan nan nan nan nan nan nan nan nan nan nan nan nan nan nan nan nan nan nan nan nan nan nan nan nan
5 3 3 353 350 346 346 350 1 344 340 335 329 323 319 315 313 312 313 313 309 302 297 296 296 294 294 293 288 284 281 276 271 264 255 248 246 nan nan nan nan nan nan nan nan nan nan nan nan nan nan nan nan nan nan nan nan nan nan nan nan nan nan nan nan nan nan nan nan nan nan nan nan nan nan nan nan nan nan nan nan nan nan nan nan
346 342 358 359 6 355 342 342 360 355 336 330 324 312 311 309 307 303 303 306 301 298 296 294 294 293 292 292 289 284 280 276 272 266 258 251 249 247 nan nan nan nan nan nan nan nan nan nan nan nan nan nan nan nan nan nan nan nan nan nan nan nan nan nan nan nan nan nan nan nan nan nan nan nan nan nan nan nan nan nan nan nan nan nan nan
331 332 325 335 349 345 356 327 320 311 297 321 308 315 310 306 305 301 300 299 299 297 295 292 292 292 292 291 289 286 280 277 272 268 263 256 252 250 nan nan nan nan nan nan nan nan nan nan nan nan nan nan nan nan nan nan nan nan nan nan nan nan nan nan nan nan nan nan nan nan nan nan nan nan nan nan nan nan nan nan nan nan nan nan nan
324 321 313 307 318 318 328 315 321 316 329 337 277 268 300 292 297 298 301 304 304 301 297 293 292 291 290 289 288 286 283 277 275 271 265 259 256 nan nan nan nan nan nan nan nan nan nan nan nan nan nan nan nan nan nan nan nan nan nan nan nan nan nan nan nan nan nan nan nan nan nan nan nan nan nan nan nan nan nan nan nan nan nan nan nan
310 310 310 312 307 308 304 307 314 323 315 296 290 287 125 299 294 292 291 291 297 301 300 294 294 293 290 291 288 284 279 279 280 275 268 263 260 nan nan nan nan nan nan nan nan nan nan nan nan nan nan nan nan nan nan nan nan nan nan nan nan nan nan nan nan nan nan nan nan nan nan nan nan nan nan nan nan nan nan nan nan nan nan nan nan
299 307 309 311 311 314 306 300 295 298 295 301 319 326 311 288 294 309 302 300 296 301 299 294 293 290 288 286 284 282 280 279 281 279 274 267 264 nan nan nan nan nan nan nan nan nan nan nan nan nan nan nan nan nan nan nan nan nan nan nan nan nan nan nan nan nan nan nan nan nan nan nan nan nan nan nan nan nan nan nan nan nan nan nan nan
276 282 281 283 273 296 304 302 298 290 293 292 287 301 302 307 308 306 304 300 295 295 296 294 290 289 286 289 289 288 285 285 284 277 273 268 nan nan nan nan nan nan nan nan nan nan nan nan nan nan nan nan nan nan nan nan nan nan nan nan nan nan nan nan nan nan nan nan nan nan nan nan nan nan nan nan nan nan nan nan nan nan nan nan nan
277 279 278 262 266 271 259 273 292 295 294 284 285 283 291 299 301 299 297 301 297 295 296 296 293 291 290 289 287 283 279 281 282 nan nan nan nan nan nan nan nan nan nan nan nan nan nan nan nan nan nan nan nan nan nan nan nan nan nan nan nan nan nan nan nan nan nan nan nan nan nan nan nan nan nan nan nan nan nan nan nan nan nan nan nan
282 272 267 265 261 250 253 254 248 294 290 285 284 285 286 293 290 291 306 301 297 294 293 291 288 288 288 287 285 278 277 278 277 nan nan nan nan nan nan nan nan nan nan nan nan nan nan nan nan nan nan nan nan nan nan nan nan nan nan nan nan nan nan nan nan nan nan nan nan nan nan nan nan nan nan nan nan nan nan nan nan nan nan nan nan
291 284 271 264 265 253 251 253 251 263 264 283 279 277 278 284 284 278 275 272 274 278 279 279 283 278 281 282 275 274 272 275 nan nan nan nan nan nan nan nan nan nan nan nan nan nan nan nan nan nan nan nan nan nan nan nan nan nan nan nan nan nan nan nan nan nan nan nan nan nan nan nan nan nan nan nan nan nan nan nan nan nan nan nan nan
299 287 273 265 267 265 262 260 259 253 265 282 279 272 277 271 268 272 270 277 277 278 271 278 270 279 278 275 273 272 270 269 nan 278 nan nan nan nan nan nan nan nan nan nan nan nan nan nan nan nan nan nan nan nan nan nan nan nan nan nan nan nan nan nan nan nan nan nan nan nan nan nan nan nan nan nan nan nan nan nan nan nan nan nan nan
304 296 288 271 272 276 274 274 262 253 270 267 284 272 272 274 278 276 275 274 273 273 277 271 275 278 276 274 272 268 269 273 274 280 280 nan nan nan nan nan nan nan nan nan nan nan nan nan nan nan nan nan nan nan nan nan nan nan nan nan nan nan nan nan nan nan nan nan nan nan nan nan nan nan nan nan nan nan nan nan nan nan nan nan nan
297 288 288 291 276 272 268 267 261 262 265 266 275 275 279 279 284 284 284 281 278 277 275 274 271 274 277 273 272 269 272 273 278 279 282 nan nan nan nan nan nan nan nan nan nan nan nan nan nan nan nan nan nan nan nan nan nan nan nan nan nan nan nan nan nan nan nan nan nan nan nan nan nan nan nan nan nan nan nan nan nan nan nan nan nan
287 301 302 287 277 272 267 263 261 264 267 269 279 281 290 292 286 291 283 275 282 278 275 273 274 275 275 275 273 277 275 274 280 276 282 281 nan nan nan nan nan nan nan nan nan nan nan nan nan nan nan nan nan nan nan nan nan nan nan nan nan nan nan nan nan nan nan nan nan nan nan nan nan nan nan nan nan nan nan nan nan nan nan nan nan
295 300 nan nan nan nan nan 266 266 261 262 271 268 272 289 297 298 292 288 280 280 280 280 277 278 276 275 275 277 275 277 279 279 285 285 282 nan nan nan nan nan nan nan nan nan nan nan nan nan nan nan nan nan nan nan nan nan nan nan nan nan nan nan nan nan nan nan nan nan nan nan nan nan nan nan nan nan nan nan nan nan nan nan nan nan
nan nan nan nan nan nan nan nan nan 261 261 259 264 276 285 296 301 294 292 290 286 284 283 281 281 282 280 276 276 274 275 276 279 284 286 283 nan nan nan nan nan nan nan nan nan nan nan nan nan nan nan nan nan nan nan nan nan nan nan nan nan nan nan nan nan nan nan nan nan nan nan nan nan nan nan nan nan nan nan nan nan nan nan nan nan
nan nan nan nan nan nan nan nan nan nan nan nan 270 280 287 288 293 294 292 290 286 285 284 282 280 276 278 279 278 278 276 279 280 283 284 287 287 nan nan nan nan nan nan nan nan nan nan nan nan nan nan nan nan nan nan nan nan nan nan nan nan nan nan nan nan nan nan nan nan nan nan nan nan nan nan nan nan nan nan nan nan nan nan nan nan
nan nan nan nan nan nan nan nan nan nan nan 274 278 282 286 284 284 290 284 284 286 283 284 280 281 277 275 278 278 280 284 284 286 281 286 287 287 nan nan nan nan nan nan nan nan nan nan nan nan nan nan nan nan nan nan nan nan nan nan nan nan nan nan nan nan nan nan nan nan nan nan nan nan nan nan nan nan nan nan nan nan nan nan nan nan
nan nan nan nan nan nan nan nan nan nan nan nan 280 281 278 276 274 281 284 283 281 281 281 282 276 276 278 nan 279 282 282 281 284 283 279 281 nan nan nan nan nan nan nan nan nan nan nan nan nan nan nan nan nan nan nan nan nan nan nan nan nan nan nan nan nan nan nan nan nan nan nan nan nan nan nan nan nan nan nan nan nan nan nan nan nan
nan nan nan nan nan nan nan nan nan nan nan nan 285 284 280 277 277 280 279 277 283 283 278 271 270 272 273 275 nan 277 nan 279 283 281 281 280 nan nan nan nan nan nan nan nan nan nan nan nan nan nan nan nan nan nan nan nan nan nan nan nan nan nan nan nan nan nan nan nan nan nan nan nan nan nan nan nan nan nan nan nan nan nan nan nan nan
nan nan nan nan nan nan nan nan nan nan nan nan 287 284 283 282 nan 279 276 275 272 276 277 nan 272 270 271 273 273 274 276 278 277 279 280 281 282 nan nan nan nan nan nan nan nan nan nan nan nan nan nan nan nan nan nan nan nan nan nan nan nan nan nan nan nan nan nan nan nan nan nan nan nan nan nan nan nan nan nan nan nan nan nan nan nan
nan nan nan nan nan nan nan nan nan nan nan nan nan 287 285 282 281 275 276 275 272 272 274 nan 272 268 268 272 273 270 274 276 281 281 nan 282 281 nan nan nan nan nan nan nan nan nan nan nan nan nan nan nan nan nan nan nan nan nan nan nan nan nan nan nan nan nan nan nan nan nan nan nan nan nan nan nan nan nan nan nan nan nan nan nan nan
nan nan nan nan nan nan nan nan nan nan nan nan nan 285 284 284 285 280 nan 277 275 278 nan 274 273 nan nan nan 271 272 270 275 279 nan nan nan nan nan nan nan nan nan nan nan nan nan nan nan nan nan nan nan nan nan nan nan nan nan nan nan nan nan nan nan nan nan nan nan nan nan nan nan nan nan nan nan nan nan nan nan nan nan nan nan nan
nan nan nan nan nan nan nan nan nan nan nan nan nan 283 284 nan 281 283 281 277 278 278 278 277 275 nan nan 268 267 271 273 273 275 nan nan nan nan nan nan nan nan nan nan nan nan nan nan nan nan nan nan nan nan nan nan nan nan nan nan nan nan nan nan nan nan nan nan nan nan nan nan nan nan nan nan nan nan nan nan nan nan nan nan nan nan
nan nan nan nan nan nan nan nan nan nan nan nan nan nan 282 278 nan nan nan nan nan 277 275 276 nan nan nan nan nan nan nan nan 274 276 280 nan nan nan nan nan nan nan nan nan nan nan nan nan nan nan nan nan nan nan nan nan nan nan nan nan nan nan nan nan nan nan nan nan nan nan nan nan nan nan nan nan nan nan nan nan nan nan nan nan nan
nan nan nan nan nan nan nan nan nan nan nan nan nan nan 280 nan nan nan nan nan 272 270 270 272 273 nan nan nan nan nan nan nan nan nan nan nan nan nan nan nan nan nan nan nan nan nan nan nan nan nan nan nan nan nan nan nan nan nan nan nan nan nan nan nan nan nan nan nan nan nan nan nan nan nan nan nan nan nan nan nan nan nan nan nan nan
nan nan nan nan nan nan nan nan nan nan nan nan nan nan nan nan nan nan nan nan nan nan nan nan nan nan nan nan nan nan nan nan nan nan nan nan nan nan nan nan nan nan nan nan nan nan nan nan nan nan nan nan nan nan nan nan nan nan nan nan nan nan nan nan nan nan nan nan nan nan nan nan nan nan nan nan nan nan nan nan nan nan nan nan nan
nan nan nan nan nan nan nan nan nan nan nan nan nan nan nan nan nan nan nan nan nan nan nan nan nan nan nan nan nan nan nan nan nan nan nan nan nan nan nan nan nan nan nan nan nan nan nan nan nan nan nan nan nan nan nan nan nan nan nan nan nan nan nan nan nan nan nan nan nan nan nan nan nan nan nan nan nan nan nan nan nan nan nan nan nan
nan nan nan nan nan nan nan nan nan nan nan nan nan nan nan nan nan nan nan nan nan nan nan nan nan nan nan nan nan nan nan nan nan nan nan nan nan nan nan nan nan nan nan nan nan nan nan nan nan nan nan nan nan nan nan nan nan nan nan nan nan nan nan nan nan nan nan nan nan nan nan nan nan nan nan nan nan nan nan nan nan nan nan nan nan
nan nan nan nan nan nan nan nan nan nan nan nan nan nan nan nan nan nan nan nan nan nan nan nan nan nan nan nan nan nan nan nan nan nan nan nan nan nan nan nan nan nan nan nan nan nan nan nan nan nan nan nan nan nan nan nan nan nan nan nan nan nan nan nan nan nan nan nan nan nan nan nan nan nan nan nan nan nan nan nan nan nan nan nan nan
nan nan nan nan nan nan nan nan nan nan nan nan nan nan nan nan nan nan nan nan nan nan nan nan nan nan nan nan nan nan nan nan nan nan nan nan nan nan nan nan nan nan nan nan nan nan nan nan nan nan nan nan nan nan nan nan nan nan nan nan nan nan nan nan nan nan nan nan nan nan nan nan nan nan nan nan nan nan nan nan nan nan nan nan nan
nan nan nan nan nan nan nan nan nan nan nan nan nan nan nan nan nan nan nan nan nan nan nan nan nan nan nan nan nan nan nan nan nan nan nan nan nan nan nan nan nan nan nan nan nan nan nan nan nan nan nan nan nan nan nan nan nan nan nan nan nan nan nan nan nan nan nan nan nan nan nan nan nan nan nan nan nan nan nan nan nan nan nan nan nan
nan nan nan nan nan nan nan nan nan nan nan nan nan nan nan nan nan nan nan nan nan nan nan nan nan nan nan nan nan nan nan nan nan nan nan nan nan nan nan nan nan nan nan nan nan nan nan nan nan nan nan nan nan nan nan nan nan nan nan nan nan nan nan nan nan nan nan nan nan nan nan nan nan nan nan nan nan nan nan nan nan nan nan nan nan
nan nan nan nan nan nan nan nan nan nan nan nan nan nan nan nan nan nan nan nan nan nan nan nan nan nan nan nan nan nan nan nan nan nan nan nan nan nan nan nan nan nan nan nan nan nan nan nan nan nan nan nan nan nan nan nan nan nan nan nan nan nan nan nan nan nan nan nan nan nan nan nan nan nan nan nan nan nan nan nan nan nan nan nan nan
nan nan nan nan nan nan nan nan nan nan nan nan nan nan nan nan nan nan nan nan nan nan nan nan nan nan nan nan nan nan nan nan nan nan nan nan nan nan nan nan nan nan nan nan nan nan nan nan nan nan nan nan nan nan nan nan nan nan nan nan nan nan nan nan nan nan nan nan nan nan nan nan nan nan nan nan nan nan nan nan nan nan nan nan nan
nan nan nan nan nan nan nan nan nan nan nan nan nan nan nan nan nan nan nan nan nan nan nan nan nan nan nan nan nan nan nan nan nan nan nan nan nan nan nan nan nan nan nan nan nan nan nan nan nan nan nan nan nan nan nan nan nan nan nan nan nan nan nan nan nan nan nan nan nan nan nan nan nan nan nan nan nan nan nan nan nan nan nan nan nan
nan nan nan nan nan nan nan nan nan nan nan nan nan nan nan nan nan nan nan nan nan nan nan nan nan nan nan nan nan nan nan nan nan nan nan nan nan nan nan nan nan nan nan nan nan nan nan nan nan nan nan nan nan nan nan nan nan nan nan nan nan nan nan nan nan nan nan nan nan nan nan nan nan nan nan nan nan nan nan nan nan nan nan nan nan
nan nan nan nan nan nan nan nan nan nan nan nan nan nan nan nan nan nan nan nan nan nan nan nan nan nan nan nan nan nan nan nan nan nan nan nan nan nan nan nan nan nan nan nan nan nan nan nan nan nan nan nan nan nan nan nan nan nan nan nan nan nan nan nan nan nan nan nan nan nan nan nan nan nan nan nan nan nan nan nan nan nan nan nan nan
nan nan nan nan nan nan nan nan nan nan nan nan nan nan nan nan nan nan nan nan nan nan nan nan nan nan nan nan nan nan nan nan nan nan nan nan nan nan nan nan nan nan nan nan nan nan nan nan nan nan nan nan nan nan nan nan nan nan nan nan nan nan nan nan nan nan nan nan nan nan nan nan nan nan nan nan nan nan nan nan nan nan nan nan nan